Terug naar catalogus

FENGYUN 1C DEB *

ActiefPO
NORAD 47012·DEBRIS·🇨🇳 China

Gelanceerd May 10, 1999 vanaf Taiyuan Satellite Launch Center

Loading…

Volgende Passages (komende 24 uur)

TLE

VerouderendSource: Space-Track

Epoch: Sep 4, 2026, 20:35 UTC

1 47012U 99025FAN 26247.85799003  .00000217  00000-0  22923-3 0  9992
2 47012  98.7228 110.4437 0163779  69.1471 292.7134 13.78142883582382

Volg FENGYUN 1C DEB * in realtime met AllMySat

Download on the App Store